Wind_Speed
36 37 37 38 39 40 41 41 43 44 45 46 46 47 48 49 49 50 50 49 49 49 50 51 50 49 49 49 47 47 45 45 45 44 44 43 43 42 41 41 40 40 39
37 37 38 38 38 39 40 41 41 43 44 45 46 47 48 49 49 50 51 50 50 50 51 51 50 50 50 50 49 48 47 46 46 46 46 44 43 42 42 42 41 40 40
38 38 38 38 38 39 40 41 41 42 44 45 45 46 47 48 48 48 49 50 50 50 51 52 51 51 51 50 49 49 48 48 48 47 47 46 45 44 44 43 42 41 41
38 38 38 37 37 38 39 40 40 41 43 44 45 46 46 48 48 49 49 50 50 49 50 51 52 52 51 50 50 50 49 49 49 48 47 47 46 45 44 44 43 42 41
37 37 37 37 37 38 39 40 41 42 43 43 45 45 45 46 48 48 50 50 50 50 50 51 52 51 51 51 50 51 50 50 49 48 48 48 46 46 45 44 43 43 42
36 37 38 38 38 39 40 40 41 42 42 43 43 43 44 45 46 47 48 49 50 50 50 51 52 52 51 51 50 51 52 52 51 50 49 49 48 47 47 46 45 45 44
35 36 37 37 38 39 39 39 40 41 41 42 42 42 43 44 45 45 46 48 49 50 50 50 52 52 51 50 50 51 51 51 52 51 50 50 50 49 48 48 46 46 46
34 35 36 37 38 38 38 38 39 40 40 41 41 40 41 42 44 45 46 47 48 49 49 50 51 52 52 51 51 52 51 52 52 51 51 52 52 51 49 49 48 47 47
34 35 36 37 37 38 38 38 38 39 39 40 40 40 41 41 43 44 45 46 47 48 48 49 51 51 52 51 52 52 52 53 53 53 52 53 53 51 51 50 49 49 48
33 34 35 36 37 38 38 38 38 39 39 39 39 39 40 41 42 43 44 46 46 47 47 48 50 50 51 51 52 52 53 53 53 53 53 52 53 52 52 50 50 51 50
34 35 35 35 36 38 39 39 38 38 38 39 39 38 39 40 41 42 43 45 45 46 47 48 49 49 50 51 52 53 54 53 54 54 54 53 52 52 51 51 51 52 52
34 35 35 35 36 37 37 38 38 37 37 37 38 38 38 39 40 40 42 43 44 45 46 47 48 49 49 51 52 53 54 54 53 54 53 52 52 52 52 52 53 53 53
34 34 34 35 35 35 36 36 36 36 36 36 37 38 38 38 38 39 41 42 42 43 44 46 47 48 48 49 50 52 53 53 54 54 53 52 52 52 53 54 54 55 55
34 34 34 35 35 35 35 35 35 35 35 35 35 36 37 36 36 37 38 40 41 42 44 45 47 49 49 48 49 51 52 53 54 54 55 54 53 52 54 54 54 55 56
33 33 34 34 34 34 35 35 35 34 34 34 34 34 35 35 35 35 36 38 39 41 42 44 46 47 47 47 48 50 51 53 54 55 56 55 55 55 55 55 55 56 57
33 33 33 34 34 34 34 35 35 35 35 35 34 33 34 35 35 35 36 36 37 39 41 42 44 45 46 48 49 49 50 51 53 55 55 55 55 55 55 56 56 56 57
32 33 33 33 33 33 33 33 34 34 34 34 34 33 34 33 33 34 34 35 36 37 38 40 42 44 46 47 48 49 50 51 53 55 56 56 55 55 56 57 57 57 57
32 32 32 32 32 32 32 33 34 34 33 33 33 33 32 32 33 33 33 34 35 35 36 38 40 43 44 44 46 48 50 50 52 53 54 55 56 56 55 56 56 57 57
32 32 31 31 31 30 30 31 32 33 32 32 32 32 32 31 31 31 32 33 34 35 36 37 39 41 43 43 44 47 48 49 50 51 51 53 54 54 55 55 55 56 57
33 33 32 31 31 30 30 30 30 31 31 31 31 32 32 31 31 31 32 32 33 34 35 36 38 40 42 43 43 44 45 46 48 50 51 51 53 54 54 55 55 56 56
33 33 33 32 31 31 31 30 30 30 30 31 31 31 31 31 31 32 32 32 33 33 34 35 37 38 40 42 43 43 43 44 45 46 47 49 50 52 53 54 54 55 56
32 32 32 32 32 31 31 30 30 30 30 30 29 30 31 31 32 31 31 32 33 33 33 34 36 36 38 40 42 42 43 44 45 45 46 47 49 50 52 52 53 54 55
33 32 31 31 31 31 31 30 28 28 27 27 27 28 30 31 32 32 32 32 33 33 33 35 35 35 36 37 38 40 42 44 44 45 45 46 47 48 50 50 51 51 53
32 31 30 30 30 29 29 28 27 26 25 26 27 27 28 30 30 31 31 32 32 33 34 35 35 35 36 37 39 40 41 43 44 45 46 46 46 47 47 47 48 49 50
29 29 29 28 28 27 27 27 27 26 25 25 25 27 27 28 30 31 32 32 33 33 34 34 35 35 35 36 37 39 39 41 42 43 44 44 44 45 45 46 46 47 48
27 27 27 27 27 26 25 25 25 25 25 25 25 26 26 27 28 29 31 32 32 32 33 33 34 34 34 34 34 35 36 37 38 39 39 40 41 42 43 44 44 45 45
Wind_Direction
270 270 269 269 268 267 266 264 263 262 261 260 259 258 257 256 254 253 251 250 250 250 248 247 245 244 244 244 244 244 243 243 244 244 246 246 247 247 248 248 248 248 248
271 272 271 270 269 268 267 266 265 263 261 261 260 259 258 256 254 252 252 250 250 249 247 246 245 244 243 242 242 243 243 243 244 244 245 247 247 247 246 247 247 248 249
272 272 272 271 269 268 268 266 264 264 263 262 262 260 258 256 255 253 252 251 249 248 246 246 245 244 242 241 241 242 242 242 243 244 246 246 246 247 246 246 248 248 249
273 272 272 271 269 268 268 266 265 264 264 263 262 261 259 257 254 252 251 250 249 248 247 246 245 243 241 240 241 241 241 242 243 245 246 245 246 248 246 247 248 248 248
272 271 270 271 271 270 268 266 265 264 265 264 263 262 259 258 256 253 251 249 248 248 247 246 245 242 241 240 240 241 241 241 242 243 245 245 245 247 246 247 248 249 249
272 271 270 271 272 272 271 268 266 265 265 265 263 261 259 258 256 254 252 248 247 247 247 246 245 243 241 240 241 242 241 241 242 243 245 246 246 246 246 246 247 248 248
273 271 271 273 274 274 273 271 268 266 266 264 264 261 260 258 256 254 251 249 247 247 246 245 244 242 240 241 242 242 241 241 242 244 245 246 246 246 247 247 247 248 247
273 272 273 275 275 275 273 272 270 268 266 264 264 262 260 258 256 254 252 250 248 248 246 245 244 242 240 240 241 242 242 242 242 244 245 246 246 246 247 247 247 248 248
274 274 275 276 276 275 273 273 272 268 266 264 262 262 261 259 256 254 252 250 249 248 247 245 243 241 240 239 241 242 242 243 243 243 245 246 246 247 247 247 248 249 249
276 276 277 277 277 276 275 274 273 269 266 264 262 262 262 259 257 255 252 251 250 249 247 245 242 240 240 240 242 243 242 242 243 243 244 246 246 247 247 247 247 248 248
277 278 279 279 278 277 276 275 273 270 267 265 263 262 261 259 257 255 252 252 250 249 248 245 243 241 241 241 242 244 244 243 243 242 243 244 246 246 246 246 248 249 249
279 279 280 280 279 278 277 276 273 270 268 266 263 261 261 260 258 256 253 251 250 248 247 245 243 241 241 242 243 244 244 244 244 244 244 245 246 246 246 247 248 249 249
280 280 280 280 280 279 278 276 274 271 269 266 263 261 260 260 259 256 254 252 250 248 247 245 243 241 242 244 243 243 244 245 245 244 244 245 247 247 247 248 249 249 250
280 280 279 280 281 280 278 276 275 273 270 267 265 262 261 260 258 256 254 253 251 249 247 246 244 243 244 245 245 244 245 246 246 246 246 246 248 248 248 249 249 249 250
281 282 280 280 280 279 278 276 274 272 269 268 267 264 261 260 259 257 255 253 251 249 248 246 245 246 246 247 247 246 246 246 246 247 247 247 248 248 248 250 250 250 251
282 283 283 282 281 279 279 276 274 271 270 267 266 264 262 260 259 256 255 255 253 251 249 247 248 248 248 250 249 248 247 247 248 249 248 249 249 249 250 250 250 250 251
284 285 284 282 281 280 280 278 276 272 270 268 265 263 261 260 258 257 255 254 253 252 252 253 252 251 250 251 251 250 249 249 250 250 250 250 251 251 251 251 251 251 251
285 285 285 284 283 280 280 279 278 273 269 266 264 262 261 260 259 258 257 255 254 254 255 254 253 252 252 252 251 251 251 252 252 252 252 251 252 252 251 250 251 252 252
286 286 285 285 285 283 281 280 278 274 270 266 263 262 262 261 260 258 256 254 254 255 256 255 255 255 253 253 253 254 253 253 252 253 253 253 252 252 251 251 251 252 252
286 287 286 286 286 286 284 281 278 275 271 268 266 263 262 261 260 259 257 257 256 256 256 256 256 256 255 255 256 256 256 255 254 252 253 253 253 252 251 251 251 252 252
287 288 288 287 286 285 284 281 277 276 273 270 268 264 262 261 261 260 259 258 259 258 257 257 257 257 257 257 257 258 259 258 257 256 255 254 253 252 252 252 251 252 252
288 289 289 289 287 285 283 280 277 275 273 271 268 264 262 262 262 262 261 260 260 259 259 259 260 259 259 259 258 260 261 261 261 258 256 255 253 252 252 252 252 251 251
288 288 289 289 287 287 285 282 279 275 273 272 269 266 264 263 262 262 262 262 261 260 260 261 261 260 260 260 261 262 264 264 262 260 258 255 254 253 253 253 252 252 253
287 288 289 289 287 286 286 283 280 277 274 274 271 268 266 265 264 263 263 263 262 261 260 260 260 261 261 261 261 263 264 263 262 260 259 256 254 253 253 252 252 253 256
286 287 288 289 289 287 286 284 281 278 276 276 273 270 268 265 264 264 264 263 262 263 262 260 260 260 261 263 262 263 264 263 262 260 258 257 255 254 254 254 255 256 256
289 288 287 289 290 289 287 284 282 279 278 277 275 272 268 265 264 265 265 264 263 263 263 264 263 262 263 263 262 264 264 262 261 259 257 257 256 255 254 255 255 256 256
Height
5658 5656 5656 5655 5655 5654 5654 5654 5654 5654 5654 5656 5657 5659 5661 5663 5665 5668 5671 5674 5678 5681 5686 5690 5695 5700 5705 5709 5714 5719 5723 5727 5731 5736 5740 5743 5747 5750 5754 5756 5760 5763 5766
5648 5647 5646 5645 5644 5643 5643 5643 5642 5642 5642 5643 5644 5646 5647 5649 5652 5654 5657 5661 5665 5668 5673 5677 5682 5687 5692 5697 5703 5708 5712 5716 5720 5725 5729 5733 5737 5740 5744 5747 5750 5753 5756
5638 5637 5636 5635 5634 5633 5632 5631 5631 5631 5631 5631 5632 5633 5634 5636 5639 5641 5644 5648 5652 5655 5660 5664 5670 5675 5680 5685 5691 5696 5701 5705 5709 5714 5719 5723 5727 5731 5734 5737 5740 5743 5746
5627 5626 5625 5624 5622 5621 5620 5620 5619 5619 5618 5618 5619 5619 5621 5623 5625 5627 5630 5634 5638 5642 5647 5651 5656 5662 5667 5673 5679 5684 5689 5694 5698 5703 5707 5712 5716 5720 5724 5727 5730 5733 5736
5617 5616 5614 5613 5611 5610 5609 5608 5607 5606 5606 5605 5605 5606 5607 5609 5611 5613 5617 5621 5625 5629 5634 5638 5643 5649 5655 5661 5666 5672 5677 5682 5687 5691 5696 5700 5704 5708 5713 5717 5720 5723 5726
5607 5606 5604 5602 5601 5599 5597 5596 5595 5594 5593 5593 5592 5593 5594 5595 5597 5600 5603 5608 5612 5616 5620 5625 5630 5636 5642 5648 5654 5659 5664 5669 5675 5679 5684 5688 5693 5697 5701 5705 5709 5712 5716
5597 5595 5594 5592 5590 5588 5585 5584 5583 5582 5581 5580 5580 5580 5581 5582 5585 5587 5590 5594 5599 5602 5607 5612 5617 5623 5629 5635 5641 5646 5651 5657 5662 5667 5672 5676 5681 5685 5689 5693 5697 5701 5704
5587 5585 5583 5581 5579 5576 5574 5572 5571 5570 5569 5569 5568 5568 5569 5570 5572 5575 5578 5582 5586 5590 5594 5599 5604 5610 5616 5622 5628 5633 5639 5644 5649 5654 5659 5664 5668 5673 5677 5681 5685 5689 5693
5577 5575 5573 5571 5568 5566 5564 5562 5560 5559 5558 5557 5557 5557 5557 5558 5560 5562 5566 5569 5573 5577 5581 5586 5591 5597 5602 5609 5615 5620 5625 5631 5636 5642 5646 5651 5655 5660 5665 5669 5673 5677 5681
5568 5566 5563 5561 5558 5555 5553 5551 5549 5548 5547 5546 5546 5546 5546 5547 5548 5551 5554 5558 5561 5565 5569 5574 5579 5584 5590 5596 5601 5607 5612 5617 5623 5628 5633 5638 5643 5647 5652 5656 5660 5664 5668
5558 5556 5554 5551 5548 5545 5543 5541 5539 5538 5537 5536 5536 5536 5536 5536 5538 5540 5543 5546 5549 5553 5557 5561 5567 5572 5577 5583 5589 5594 5599 5604 5609 5615 5620 5625 5630 5634 5638 5643 5647 5651 5655
5548 5546 5544 5541 5538 5536 5533 5531 5529 5528 5527 5526 5526 5526 5526 5526 5528 5529 5532 5535 5538 5542 5545 5549 5554 5560 5565 5570 5576 5581 5586 5591 5596 5602 5607 5612 5616 5621 5625 5630 5634 5638 5642
5539 5537 5535 5532 5529 5526 5524 5521 5519 5518 5517 5517 5516 5516 5516 5517 5518 5519 5522 5524 5527 5530 5534 5538 5543 5547 5552 5557 5563 5568 5573 5578 5583 5588 5593 5598 5602 5607 5612 5616 5620 5625 5629
5529 5527 5525 5522 5520 5517 5515 5513 5511 5509 5508 5508 5507 5507 5507 5507 5508 5510 5512 5514 5516 5519 5523 5527 5531 5535 5540 5545 5549 5554 5559 5564 5569 5574 5579 5584 5588 5593 5598 5602 5606 5610 5614
5519 5517 5515 5513 5511 5508 5506 5504 5502 5500 5499 5499 5498 5498 5498 5498 5499 5500 5502 5504 5506 5509 5512 5516 5520 5524 5528 5532 5536 5541 5546 5551 5555 5560 5565 5569 5574 5579 5583 5588 5592 5596 5600
5510 5508 5506 5504 5501 5499 5497 5495 5494 5492 5491 5490 5490 5490 5490 5490 5490 5491 5492 5494 5496 5499 5502 5506 5509 5513 5517 5521 5524 5528 5532 5537 5541 5546 5550 5554 5559 5564 5568 5573 5577 5581 5585
5501 5499 5496 5494 5492 5489 5488 5486 5485 5483 5482 5482 5481 5481 5481 5481 5481 5482 5483 5485 5487 5490 5493 5496 5499 5502 5506 5509 5512 5515 5519 5524 5528 5532 5536 5540 5544 5548 5553 5557 5561 5565 5569
5492 5489 5487 5485 5482 5480 5478 5476 5475 5474 5473 5473 5473 5473 5473 5473 5473 5474 5475 5477 5479 5481 5484 5486 5489 5492 5494 5497 5500 5503 5506 5510 5514 5517 5521 5525 5529 5532 5537 5541 5546 5550 5554
5482 5480 5478 5476 5473 5471 5469 5467 5466 5465 5464 5464 5464 5464 5465 5465 5465 5466 5467 5469 5471 5473 5474 5476 5479 5481 5483 5485 5487 5490 5493 5496 5499 5503 5506 5509 5513 5517 5521 5526 5530 5534 5538
5473 5471 5469 5467 5465 5462 5460 5459 5457 5456 5455 5455 5455 5455 5456 5457 5458 5458 5459 5461 5462 5464 5465 5467 5469 5470 5472 5473 5475 5477 5480 5483 5486 5488 5492 5495 5498 5502 5505 5509 5514 5518 5522
5465 5462 5460 5458 5456 5453 5451 5450 5449 5448 5447 5446 5446 5446 5447 5448 5449 5450 5451 5452 5453 5455 5456 5457 5459 5460 5461 5463 5464 5466 5467 5470 5472 5475 5478 5481 5483 5487 5490 5494 5498 5503 5506
5456 5453 5451 5449 5446 5444 5443 5441 5440 5439 5438 5438 5437 5438 5439 5439 5440 5441 5442 5443 5444 5445 5446 5448 5449 5450 5450 5452 5453 5454 5456 5457 5460 5462 5465 5467 5469 5472 5475 5479 5483 5486 5489
5446 5444 5442 5440 5438 5435 5433 5432 5431 5430 5430 5430 5429 5429 5430 5430 5431 5432 5433 5433 5434 5435 5437 5438 5439 5440 5440 5441 5442 5443 5444 5446 5447 5449 5451 5453 5456 5459 5462 5465 5468 5471 5474
5437 5435 5433 5431 5429 5427 5425 5424 5423 5422 5422 5421 5421 5421 5421 5422 5422 5423 5423 5424 5425 5426 5427 5428 5429 5430 5430 5431 5431 5432 5433 5434 5435 5437 5438 5440 5443 5445 5448 5451 5454 5456 5459
5428 5426 5425 5423 5421 5419 5417 5416 5415 5414 5414 5413 5413 5413 5413 5413 5413 5414 5414 5415 5415 5416 5417 5418 5419 5420 5420 5420 5420 5420 5421 5422 5423 5424 5426 5428 5430 5432 5434 5437 5440 5442 5445
5420 5418 5416 5415 5413 5411 5410 5408 5407 5406 5406 5405 5405 5404 5404 5404 5404 5405 5406 5405 5406 5406 5407 5407 5409 5409 5410 5410 5410 5410 5410 5410 5411 5412 5414 5416 5417 5420 5422 5424 5426 5428 5430